This is the latest recevied weather packets stored in our database for station/object K3HW. If no packets are shown the sender has not sent any weather packets the latest 1 day(s).
| Time | Temp. | Humidity | Pressure | Rain* | Wind** | Luminosity | Snow |
|---|---|---|---|---|---|---|---|
| 1778071435 | 19.44° C | 68% | 1012.9 hPa | 0 mm | - | 37 W/m² | - |
| 1778071133 | 19.44° C | 68% | 1013.1 hPa | 0 mm | - | 49 W/m² | - |
| 1778070831 | 18.89° C | 68% | 1012.9 hPa | 0 mm | - | 73 W/m² | - |
| 1778070225 | 18.89° C | 69% | 1012.9 hPa | 0 mm | - | 21 W/m² | - |
| 1778069620 | 18.89° C | 69% | 1012.8 hPa | 0 mm | - | 29 W/m² | - |
| 1778069317 | 18.89° C | 69% | 1012.8 hPa | 0 mm | - | 37 W/m² | - |
| 1778069015 | 18.89° C | 70% | 1012.9 hPa | 0 mm | - | 50 W/m² | - |
| 1778068712 | 18.89° C | 71% | 1012.7 hPa | 0 mm | - | 39 W/m² | - |
| 1778068410 | 18.89° C | 70% | 1012.8 hPa | 0 mm | - | 33 W/m² | - |
| 1778067201 | 18.33° C | 71% | 1012.7 hPa | 0 mm | - | 21 W/m² | - |
| 1778066897 | 18.33° C | 71% | 1012.5 hPa | 0 mm | - | 23 W/m² | - |
| 1778066292 | 18.33° C | 72% | 1012.9 hPa | 0 mm | - | 25 W/m² | - |
| 1778065384 | 18.33° C | 72% | 1012.5 hPa | 0 mm | - | 13 W/m² | - |
| 1778064475 | 18.33° C | 71% | 1012.4 hPa | 0 mm | - | 15 W/m² | - |
| 1778063870 | 18.33° C | 71% | 1012.5 hPa | 0 mm | - | 10 W/m² | - |
| 1778063567 | 18.33° C | 71% | 1012.3 hPa | 0 mm | - | 6 W/m² | - |
| 1778062054 | 18.33° C | 72% | 1012.1 hPa | 0 mm | - | 2 W/m² | - |
| 1778061450 | 18.33° C | 71% | 1012.5 hPa | 0 mm | - | 1 W/m² | - |
| 1778060240 | 18.33° C | 71% | 1012.4 hPa | 0 mm | - | 0 W/m² | - |
| 1778057818 | 19.44° C | 67% | 1012.3 hPa | 0 mm | - | 0 W/m² | - |
| 1778056604 | 19.44° C | 67% | 1012.3 hPa | 0 mm | - | 0 W/m² | - |
| 1778056302 | 19.44° C | 67% | 1012.8 hPa | 0 mm | - | 0 W/m² | - |
| 1778055694 | 19.44° C | 67% | 1012.5 hPa | 0 mm | - | 0 W/m² | - |
| 1778055090 | 19.44° C | 67% | 1012.4 hPa | 0 mm | - | 0 W/m² | - |
| 1778053878 | 19.44° C | 67% | 1012.7 hPa | 0 mm | - | 0 W/m² | - |
* Rain latest hour (hover to see other rain measurements)
** Current wind speed in m/s (hover to see current wind gust speed)